Tracking 20083 objects as of 8-Dec-2019
HD Live streaming from Space Station
objects crossing your sky now

PSLV DEB

Track PSLV DEB now!
10-day predictions


NORAD ID: 27097
Int'l Code: 2001-049AR
Perigee: 421.1 km
Apogee: 460.0 km
Inclination: 97.6 °
Period: 93.2 minutes
Semi major axis: 6811 km
RCS: 0.0202 m2 (small)
Launch date: October 22, 2001
Source: India (IND)
Launch site: SRIHARIKOTA (SRI)

Note: This is SATELLITE DEBRIS
aabbcc
Your satellite tracking list
Your tracking list is empty




NASA's NSSDC Master Catalog

Two Line Element Set (TLE):
1 27097U 01049AR  19341.91290130 +.00007486 +00000-0 +16219-3 0  9999
2 27097 097.5600 137.3545 0028560 199.4191 160.5972 15.44310882981876
Source of the keplerian elements: AFSPC